DW2640 Weather Reports


Display with metric or nautical units.
time (UTC)temp
F
wind
direction
speed
MPH
gust
MPH
rain 1hr
in
rain 24hr
in
rain mn
in
humidity
%
barometer
mb
20260905221529 99 168 8.0 15.0 0.00 0.00 0.00 36 1008.2
20260905220009 100 140 3.0 12.0 0.00 0.00 0.00 35 1007.9
20260905214508 100 244 8.0 13.0 0.00 0.00 0.00 33 1008.1
20260905213008 100 223 5.0 16.0 0.00 0.00 0.00 34 1008.1
20260905211517 100 177 7.0 11.0 0.00 0.00 0.00 35 1008.1
20260905210005 99 144 4.0 13.0 0.00 0.00 0.00 35 1008.5
20260905204604 98 208 5.0 10.0 0.00 0.00 0.00 37 1008.8
20260905203100 99 213 4.0 13.0 0.00 0.00 0.00 37 1008.8
20260905201608 99 254 9.0 13.0 0.00 0.00 0.00 36 1009.4
20260905200123 99 186 5.0 12.0 0.00 0.00 0.00 35 1009.5
20260905194554 99 180 7.0 14.0 0.00 0.00 0.00 37 1009.8
20260905193053 97 161 5.0 10.0 0.00 0.00 0.00 40 1010.0
20260905191554 99 168 5.0 10.0 0.00 0.00 0.00 38 1010.0
20260905190051 98 148 3.0 12.0 0.00 0.00 0.00 39 1010.3
20260905184552 98 224 5.0 10.0 0.00 0.00 0.00 39 1010.5
20260905183050 97 127 4.0 13.0 0.00 0.00 0.00 40 1010.7
20260905181547 97 138 5.0 10.0 0.00 0.00 0.00 41 1010.9
20260905180046 97 207 6.0 13.0 0.00 0.00 0.00 42 1010.8
20260905174544 96 172 4.0 13.0 0.00 0.00 0.00 43 1010.9
20260905173044 96 165 9.0 12.0 0.00 0.00 0.00 43 1011.1
20260905171556 95 200 7.0 13.0 0.00 0.00 0.00 44 1011.4
20260905170039 95 175 7.0 13.0 0.00 0.00 0.00 45 1011.4
20260905164539 94 183 5.0 11.0 0.00 0.00 0.00 47 1011.5
20260905163032 94 248 7.0 11.0 0.00 0.00 0.00 47 1011.4
20260905161536 93 252 4.0 10.0 0.00 0.00 0.00 48 1011.4
20260905160036 92 175 6.0 10.0 0.00 0.00 0.00 50 1011.3
20260905154543 91 185 6.0 12.0 0.00 0.00 0.00 51 1011.2
20260905153017 90 132 3.0 9.0 0.00 0.00 0.00 53 1011.4
20260905151515 89 175 5.0 9.0 0.00 0.00 0.00 55 1011.1
20260905150009 88 198 5.0 11.0 0.00 0.00 0.00 57 1011.0
20260905144505 87 200 5.0 10.0 0.00 0.00 0.00 59 1010.8
20260905143002 86 200 4.0 11.0 0.00 0.00 0.00 60 1010.8
20260905141600 86 182 5.0 9.0 0.00 0.00 0.00 60 1010.7
20260905140057 84 221 4.0 9.0 0.00 0.00 0.00 63 1010.8
20260905134557 82 188 3.0 7.0 0.00 0.00 0.00 66 1010.9
20260905133054 80 158 4.0 7.0 0.00 0.00 0.00 69 1010.9
20260905131554 79 161 4.0 7.0 0.00 0.00 0.00 71 1011.0
20260905130050 79 142 3.0 7.0 0.00 0.00 0.00 71 1010.7
20260905124551 77 188 1.0 4.0 0.00 0.00 0.00 73 1010.6
20260905123048 76 166 1.0 3.0 0.00 0.00 0.00 74 1010.5
20260905121548 76 154 1.0 4.0 0.00 0.00 0.00 75 1010.4
20260905120047 76 172 0.0 2.0 0.00 0.00 0.00 75 1010.1
20260905114555 76 154 1.0 4.0 0.00 0.00 0.00 74 1009.9
20260905113044 77 179 0.0 2.0 0.00 0.00 0.00 73 1009.9
20260905111546 77 190 1.0 4.0 0.00 0.00 0.00 73 1009.9
20260905110044 77 198 0.0 2.0 0.00 0.00 0.00 74 1010.1
20260905104547 76 167 0.0 2.0 0.00 0.00 0.00 74 1010.0
20260905103045 77 150 1.0 2.0 0.00 0.00 0.00 73 1010.1
20260905101541 77 190 0.0 1.0 0.00 0.00 0.00 72 1010.1
20260905100039 78 190 0.0 2.0 0.00 0.00 0.00 72 1010.3
20260905094557 77 190 0.0 2.0 0.00 0.00 0.00 72 1010.4
20260905093042 78 190 0.0 2.0 0.00 0.00 0.00 72 1010.4
20260905091534 79 190 0.0 2.0 0.00 0.00 0.00 70 1010.5
20260905090033 79 190 0.0 2.0 0.00 0.00 0.00 69 1010.5
20260905084537 79 190 0.0 2.0 0.00 0.00 0.00 69 1010.4
20260905083030 79 194 0.0 2.0 0.00 0.00 0.00 68 1010.3
20260905081529 80 194 0.0 4.0 0.00 0.00 0.00 68 1010.3
20260905080044 80 226 0.0 4.0 0.00 0.00 0.00 68 1010.2
20260905074526 80 190 1.0 4.0 0.00 0.00 0.00 68 1010.0
20260905073036 80 182 2.0 6.0 0.00 0.00 0.00 67 1010.0
20260905071522 81 166 1.0 5.0 0.00 0.00 0.00 67 1009.9
20260905070021 81 173 2.0 5.0 0.00 0.00 0.00 66 1010.0
20260905064519 81 165 3.0 7.0 0.00 0.00 0.00 66 1009.9
20260905063018 81 191 3.0 7.0 0.00 0.00 0.00 66 1009.8
20260905061515 82 202 3.0 9.0 0.00 0.00 0.00 65 1009.8
20260905060012 82 161 5.0 9.0 0.00 0.00 0.00 65 1009.8
20260905054509 82 178 3.0 7.0 0.00 0.00 0.00 65 1009.7
20260905053007 82 162 5.0 8.0 0.00 0.00 0.00 64 1009.9
20260905051504 83 171 3.0 6.0 0.00 0.00 0.00 64 1010.0
20260905050001 83 182 3.0 6.0 0.00 0.00 0.00 63 1010.1
20260905044603 84 172 3.0 7.0 0.00 0.00 0.00 62 1010.2
20260905044503 84 180 3.0 7.0 0.00 0.00 0.00 62 1010.3
20260905043123 84 161 4.0 7.0 0.00 0.00 0.00 61 1010.1
20260905041600 85 151 5.0 8.0 0.00 0.00 0.00 61 1010.0
20260905040119 85 143 4.0 8.0 0.00 0.00 0.00 60 1010.0
20260905034600 86 150 3.0 7.0 0.00 0.00 0.00 59 1010.0
20260905033101 86 150 3.0 8.0 0.00 0.00 0.00 58 1010.1
20260905031558 86 145 4.0 8.0 0.00 0.00 0.00 57 1010.0
20260905030100 86 153 4.0 6.0 0.00 0.00 0.00 57 1010.0
20260905024557 87 138 4.0 6.0 0.00 0.00 0.00 57 1009.7
20260905023103 87 148 3.0 6.0 0.00 0.00 0.00 56 1009.5
20260905021556 88 141 4.0 7.0 0.00 0.00 0.00 55 1009.2
20260905020056 88 173 4.0 7.0 0.00 0.00 0.00 54 1008.8
20260905014554 89 164 3.0 6.0 0.00 0.00 0.00 53 1008.6
20260905013154 89 152 3.0 6.0 0.00 0.00 0.00 52 1008.5
20260905011553 90 144 3.0 7.0 0.00 0.00 0.00 51 1008.3
20260905010054 91 179 2.0 6.0 0.00 0.00 0.00 50 1008.5
20260905004555 92 170 4.0 9.0 0.00 0.00 0.00 48 1008.1
20260905003052 93 159 4.0 9.0 0.00 0.00 0.00 47 1008.2
20260905001552 94 177 5.0 9.0 0.00 0.00 0.00 46 1008.1
20260905000051 95 142 6.0 10.0 0.00 0.00 0.00 45 1008.2
20260904234556 95 157 6.0 13.0 0.00 0.00 0.00 45 1008.0
20260904233050 96 153 7.0 14.0 0.00 0.00 0.00 44 1008.0
20260904231550 96 139 6.0 14.0 0.00 0.00 0.00 43 1007.9
20260904230049 97 190 7.0 13.0 0.00 0.00 0.00 42 1008.1
20260904224554 97 200 6.0 12.0 0.00 0.00 0.00 44 1007.9
20260904223048 97 180 8.0 15.0 0.00 0.00 0.00 43 1007.9